Tracking 19226 objects as of 23-Jul-2018
HD Live streaming from Space Station
objects crossing your sky now

NIMBUS 2 DEB

Track NIMBUS 2 DEB now!
10-day predictions


NORAD ID: 42439
Int'l Code: 1966-040BS
Perigee: 1,088.9 km
Apogee: 1,155.1 km
Inclination: 100.4 °
Period: 107.6 minutes
Semi major axis: 7493 km
RCS: Unknown
Launch date: May 15, 1966
Source: United States (US)
Launch site: AIR FORCE WESTERN TEST RANGE (AFWTR)

Note: This is SATELLITE DEBRIS
aabbcc
Your satellite tracking list
Your tracking list is empty




NASA's NSSDC Master Catalog

Two Line Element Set (TLE):
1 42439U 66040BS  18203.14818247  .00000899  00000-0  17689-2 0  9996
2 42439 100.3504 330.6148 0044232 213.0234 146.8127 13.38501193135532
Source of the keplerian elements: AFSPC